CW7539 Weather Reports


Display with metric or nautical units.
time (UTC)temp
F
wind
direction
speed
MPH
gust
MPH
rain 1hr
in
rain 24hr
in
rain mn
in
humidity
%
barometer
mb
20260506153047 62 134 1.0 4.0 0.06 0.06 0.06 90 1008.8
20260506152534 63 0 0.0 4.0 0.06 0.06 0.06 90 1008.8
20260506152033 63 294 0.0 3.0 0.06 0.06 0.06 90 1008.6
20260506151544 63 0 0.0 3.0 0.06 0.06 0.06 90 1008.6
20260506151032 63 176 1.0 3.0 0.05 0.05 0.05 90 1008.5
20260506150530 63 124 0.0 3.0 0.05 0.05 0.05 90 1008.4
20260506150049 63 33 0.0 3.0 0.04 0.04 0.04 89 1008.6
20260506145537 63 0 0.0 4.0 0.04 0.04 0.04 88 1008.5
20260506145033 64 161 1.0 4.0 0.03 0.03 0.03 88 1008.4
20260506144559 64 0 0.0 4.0 0.03 0.03 0.03 87 1008.5
20260506144032 64 84 0.0 2.0 0.02 0.02 0.02 85 1008.7
20260506143532 65 193 1.0 4.0 0.01 0.01 0.01 85 1008.8
20260506143048 65 103 1.0 5.0 0.00 0.00 0.00 83 1008.8
20260506142531 65 157 1.0 6.0 0.00 0.00 0.00 82 1008.8
20260506142034 65 160 1.0 6.0 0.00 0.00 0.00 82 1008.6
20260506141541 65 285 2.0 6.0 0.00 0.00 0.00 81 1008.6
20260506141034 65 158 1.0 4.0 0.00 0.00 0.00 82 1008.6
20260506140536 65 64 0.0 3.0 0.00 0.00 0.00 82 1008.5
20260506140045 65 0 0.0 3.0 0.00 0.00 0.00 82 1008.5
20260506135531 65 266 0.0 5.0 0.00 0.00 0.00 82 1008.5
20260506135032 65 236 2.0 5.0 0.00 0.00 0.00 80 1008.6
20260506134548 65 153 1.0 5.0 0.00 0.00 0.00 80 1008.6
20260506134035 65 0 0.0 5.0 0.00 0.00 0.00 80 1008.7
20260506133533 65 113 1.0 9.0 0.00 0.00 0.00 80 1008.7
20260506133048 65 140 1.0 9.0 0.00 0.00 0.00 80 1008.7
20260506132532 65 283 0.0 6.0 0.00 0.00 0.00 79 1008.8
20260506132035 65 220 1.0 6.0 0.00 0.00 0.00 79 1008.8
20260506131540 66 218 0.0 6.0 0.00 0.00 0.00 79 1008.9
20260506131031 66 145 1.0 6.0 0.00 0.00 0.00 78 1008.8
20260506130533 66 355 0.0 6.0 0.00 0.00 0.00 77 1008.9
20260506130057 66 136 0.0 6.0 0.00 0.00 0.00 77 1008.8
20260506125531 66 132 1.0 6.0 0.00 0.00 0.00 77 1008.9
20260506125033 66 84 0.0 6.0 0.00 0.00 0.00 77 1008.8
20260506124548 66 66 1.0 6.0 0.00 0.00 0.00 77 1008.7
20260506124032 66 245 1.0 6.0 0.00 0.00 0.00 77 1008.7
20260506123532 66 134 1.0 5.0 0.00 0.00 0.00 77 1008.6
20260506123043 66 273 1.0 5.0 0.00 0.00 0.00 77 1008.5
20260506122533 66 48 0.0 5.0 0.00 0.00 0.00 77 1008.5
20260506122033 66 118 1.0 4.0 0.00 0.00 0.00 78 1008.5
20260506121545 66 68 1.0 6.0 0.00 0.00 0.00 77 1008.6
20260506121032 66 129 1.0 7.0 0.00 0.00 0.00 78 1008.7
20260506120532 66 56 2.0 9.0 0.00 0.00 0.00 77 1008.6
20260506120044 66 64 1.0 9.0 0.00 0.00 0.00 77 1008.6
20260506115534 66 0 2.0 9.0 0.00 0.00 0.00 77 1008.7
20260506115031 66 349 1.0 5.0 0.00 0.00 0.00 77 1008.5
20260506114542 66 136 1.0 9.0 0.00 0.00 0.00 77 1008.6
20260506114032 66 76 2.0 9.0 0.00 0.00 0.00 77 1008.6
20260506113534 66 235 1.0 5.0 0.00 0.00 0.00 77 1008.7
20260506113042 66 172 2.0 9.0 0.00 0.00 0.00 77 1008.6
20260506112534 66 113 1.0 9.0 0.00 0.00 0.00 77 1008.6
20260506112031 66 101 2.0 9.0 0.00 0.00 0.00 77 1008.7
20260506111543 66 125 1.0 5.0 0.00 0.00 0.00 77 1008.6
20260506111031 65 219 1.0 5.0 0.00 0.00 0.00 78 1008.4
20260506110535 65 107 1.0 5.0 0.00 0.00 0.00 78 1008.4
20260506110047 66 148 0.0 5.0 0.00 0.00 0.00 78 1008.4
20260506105533 65 191 1.0 5.0 0.00 0.00 0.00 78 1008.1
20260506105033 65 114 1.0 3.0 0.00 0.00 0.00 78 1008.2
20260506104541 65 0 1.0 2.0 0.00 0.00 0.00 78 1008.2
20260506104031 65 122 0.0 3.0 0.00 0.00 0.00 77 1008.1
20260506103534 66 0 0.0 3.0 0.00 0.00 0.00 77 1008.0
20260506103052 66 4 1.0 4.0 0.00 0.00 0.00 77 1008.0
20260506102532 66 149 0.0 4.0 0.00 0.00 0.00 77 1007.8
20260506102032 66 0 1.0 4.0 0.00 0.00 0.00 76 1008.0
20260506101544 66 88 1.0 5.0 0.00 0.00 0.00 76 1007.9
20260506101032 66 79 1.0 5.0 0.00 0.00 0.00 76 1008.0
20260506100535 66 172 1.0 3.0 0.00 0.00 0.00 76 1008.2
20260506100042 66 335 1.0 8.0 0.00 0.00 0.00 76 1008.1
20260506095533 66 109 2.0 8.0 0.00 0.02 0.00 76 1008.2
20260506095033 66 231 1.0 7.0 0.00 0.02 0.00 75 1008.1
20260506094550 66 124 2.0 7.0 0.00 0.02 0.00 75 1008.0
20260506094032 66 8 1.0 6.0 0.00 0.02 0.00 75 1007.9
20260506093532 66 151 1.0 6.0 0.00 0.02 0.00 75 1008.2
20260506093040 66 120 1.0 6.0 0.00 0.02 0.00 75 1008.1
20260506092532 66 0 2.0 6.0 0.00 0.02 0.00 75 1008.0
20260506092034 66 30 0.0 6.0 0.00 0.02 0.00 75 1007.9
20260506091548 66 138 2.0 9.0 0.00 0.02 0.00 75 1007.8
20260506091032 66 153 2.0 9.0 0.00 0.02 0.00 75 1008.0
20260506090532 66 0 0.0 7.0 0.00 0.02 0.00 75 1008.0
20260506090050 66 61 1.0 7.0 0.00 0.02 0.00 74 1008.1
20260506085533 66 145 1.0 7.0 0.00 0.02 0.00 74 1008.1
20260506085031 66 98 1.0 6.0 0.00 0.02 0.00 74 1008.2
20260506084600 66 0 1.0 4.0 0.00 0.02 0.00 74 1008.3
20260506084031 66 0 1.0 6.0 0.00 0.02 0.00 74 1008.3
20260506083532 66 28 2.0 8.0 0.00 0.02 0.00 74 1008.3
20260506083047 66 339 1.0 8.0 0.00 0.02 0.00 74 1008.2
20260506082532 65 181 2.0 8.0 0.00 0.02 0.00 74 1008.3
20260506082032 65 112 0.0 6.0 0.00 0.02 0.00 75 1008.3
20260506081542 65 119 0.0 4.0 0.00 0.02 0.00 75 1008.5
20260506081033 64 91 1.0 8.0 0.00 0.02 0.00 75 1008.3
20260506080532 64 0 1.0 8.0 0.00 0.02 0.00 75 1008.3
20260506073056 64 0 0.0 3.0 0.00 0.02 0.00 74 1008.3
20260506072531 65 0 0.0 2.0 0.00 0.02 0.00 73 1008.4
20260506072032 65 0 0.0 2.0 0.00 0.02 0.00 72 1008.5
20260506071547 65 94 0.0 2.0 0.00 0.02 0.00 72 1008.5
20260506071036 65 90 1.0 2.0 0.00 0.02 0.00 71 1008.5
20260506070532 65 0 0.0 2.0 0.00 0.02 0.00 71 1008.6
20260506062034 67 281 0.0 3.0 0.00 0.02 0.00 68 1008.8
20260506061556 67 0 0.0 3.0 0.00 0.02 0.00 67 1008.8
20260506061035 67 139 1.0 2.0 0.00 0.02 0.00 67 1009.0
20260506060534 67 121 0.0 2.0 0.00 0.02 0.00 67 1009.0
20260506051032 65 107 0.0 4.0 0.00 0.02 0.00 70 1009.2
20260506050534 64 288 1.0 4.0 0.00 0.02 0.00 72 1009.2
20260506045033 64 0 0.0 1.0 0.00 0.02 0.00 72 1009.2
20260506044552 64 75 0.0 3.0 0.00 0.02 0.00 72 1009.2
20260506044033 64 139 0.0 3.0 0.00 0.02 0.00 72 1009.2
20260506043532 64 139 1.0 3.0 0.00 0.02 0.00 72 1009.3
20260506043046 64 82 0.0 1.0 0.00 0.02 0.00 71 1009.2
20260506042532 65 0 0.0 1.0 0.00 0.02 0.00 69 1009.2
20260506042032 65 0 0.0 2.0 0.00 0.02 0.00 69 1009.4
20260506041544 65 63 0.0 2.0 0.00 0.02 0.00 68 1009.3
20260506041031 65 65 0.0 2.0 0.00 0.02 0.00 68 1009.2
20260506040532 65 0 0.0 2.0 0.00 0.02 0.00 67 1009.2
20260506040047 66 0 0.0 2.0 0.00 0.02 0.00 66 1009.3
20260506035532 66 91 0.0 2.0 0.00 0.02 0.02 66 1009.3
20260506035033 66 74 0.0 2.0 0.00 0.02 0.02 65 1009.2
20260506034550 67 89 0.0 3.0 0.00 0.02 0.02 64 1009.2
20260506034033 67 0 1.0 3.0 0.00 0.02 0.02 63 1009.2
20260506033533 68 226 0.0 5.0 0.00 0.02 0.02 61 1009.2
20260506033049 69 105 0.0 5.0 0.00 0.02 0.02 60 1009.1
20260506032532 70 90 0.0 7.0 0.00 0.02 0.02 58 1009.0
20260506032032 70 128 1.0 7.0 0.00 0.02 0.02 57 1009.0
20260506031551 71 266 1.0 7.0 0.00 0.02 0.02 56 1009.0
20260506031035 71 291 0.0 5.0 0.00 0.02 0.02 56 1009.0
20260506030531 71 297 0.0 5.0 0.00 0.02 0.02 56 1008.9
20260506030052 71 307 0.0 5.0 0.00 0.02 0.02 55 1009.0
20260506025532 71 0 1.0 4.0 0.00 0.02 0.02 55 1008.9
20260506025036 71 274 0.0 4.0 0.00 0.02 0.02 54 1008.8
20260506024558 72 332 1.0 4.0 0.00 0.02 0.02 53 1008.9
20260506024032 72 103 0.0 5.0 0.00 0.02 0.02 53 1009.0
20260506023536 72 76 1.0 7.0 0.00 0.02 0.02 53 1009.0
20260506023045 72 44 1.0 7.0 0.00 0.02 0.02 52 1009.0
20260506022532 72 266 1.0 7.0 0.00 0.02 0.02 52 1009.0
20260506022034 72 332 1.0 6.0 0.00 0.02 0.02 52 1008.9
20260506021601 72 311 1.0 6.0 0.00 0.02 0.02 52 1008.9
20260506021033 72 115 1.0 9.0 0.00 0.02 0.02 52 1008.9
20260506020533 73 101 2.0 9.0 0.00 0.02 0.02 53 1008.9
20260506020040 72 11 1.0 5.0 0.00 0.02 0.02 53 1008.8
20260506015532 73 0 1.0 5.0 0.00 0.02 0.02 52 1008.8
20260506015034 73 0 0.0 6.0 0.00 0.02 0.02 53 1008.8
20260506014545 73 0 1.0 6.0 0.00 0.02 0.02 52 1008.6
20260506014040 73 167 1.0 6.0 0.00 0.02 0.02 52 1008.7
20260506013532 73 0 1.0 7.0 0.00 0.02 0.02 51 1008.5
20260506013055 73 113 2.0 7.0 0.00 0.02 0.02 51 1008.4
20260506012533 73 150 2.0 7.0 0.00 0.02 0.02 51 1008.3
20260506012033 73 103 1.0 4.0 0.00 0.02 0.02 51 1008.3
20260506011601 73 87 0.0 3.0 0.00 0.02 0.02 51 1008.2
20260506011033 73 0 0.0 3.0 0.00 0.02 0.02 49 1008.3
20260506010532 74 79 0.0 3.0 0.00 0.02 0.02 49 1008.2
20260506010054 74 0 1.0 7.0 0.00 0.02 0.02 48 1008.1
20260506005533 75 164 1.0 7.0 0.00 0.02 0.02 47 1008.1
20260506005032 75 88 2.0 7.0 0.00 0.02 0.02 47 1008.1
20260506004546 74 103 1.0 7.0 0.00 0.02 0.02 47 1008.0
20260506004033 75 77 1.0 5.0 0.00 0.02 0.02 46 1008.0
20260506003535 75 98 1.0 5.0 0.00 0.02 0.02 47 1007.9
20260506003105 75 139 1.0 5.0 0.00 0.02 0.02 46 1007.8
20260506002535 75 213 1.0 5.0 0.00 0.02 0.02 46 1007.7
20260506002032 75 197 1.0 5.0 0.00 0.02 0.02 45 1007.6
20260506001550 75 153 1.0 5.0 0.00 0.02 0.02 45 1007.7
20260506001034 76 345 1.0 4.0 0.00 0.02 0.02 44 1007.6
20260506000533 76 0 1.0 4.0 0.00 0.02 0.02 44 1007.6
20260506000049 76 30 1.0 6.0 0.00 0.02 0.02 43 1007.6
20260505235535 76 330 1.0 7.0 0.00 0.02 0.02 43 1007.6
20260505235035 77 61 1.0 7.0 0.00 0.02 0.02 43 1007.4
20260505234545 77 0 1.0 7.0 0.00 0.02 0.02 43 1007.5
20260505234034 77 311 2.0 10.0 0.00 0.02 0.02 43 1007.4
20260505233534 77 148 2.0 10.0 0.00 0.02 0.02 42 1007.4
20260505233046 77 70 1.0 9.0 0.00 0.02 0.02 43 1007.5
20260505232532 78 196 2.0 9.0 0.00 0.02 0.02 42 1007.3
20260505232041 78 189 3.0 9.0 0.00 0.02 0.02 42 1007.4
20260505231557 78 121 1.0 7.0 0.00 0.02 0.02 43 1007.3
20260505231034 78 101 1.0 6.0 0.00 0.02 0.02 43 1007.2
20260505230533 79 341 1.0 6.0 0.00 0.02 0.02 42 1007.2
20260505230050 79 138 2.0 8.0 0.00 0.02 0.02 41 1007.1
20260505225536 80 223 3.0 12.0 0.00 0.02 0.02 39 1007.1
20260505225033 80 237 3.0 12.0 0.00 0.02 0.02 40 1007.1
20260505224549 80 10 2.0 12.0 0.00 0.02 0.02 40 1007.0
20260505224036 79 164 3.0 12.0 0.00 0.02 0.02 40 1006.9
20260505223533 79 103 4.0 16.0 0.00 0.02 0.02 41 1007.2
20260505223047 80 276 3.0 16.0 0.00 0.02 0.02 41 1007.0
20260505222533 80 188 4.0 14.0 0.00 0.02 0.02 40 1007.0
20260505222033 80 261 3.0 12.0 0.00 0.02 0.02 41 1006.9
20260505221543 80 292 4.0 12.0 0.00 0.02 0.02 41 1006.8
20260505221031 79 103 2.0 15.0 0.00 0.02 0.02 41 1006.8
20260505220533 80 135 3.0 15.0 0.00 0.02 0.02 41 1006.8
20260505220043 80 182 4.0 11.0 0.00 0.02 0.02 39 1006.9
20260505215534 81 32 3.0 11.0 0.00 0.02 0.02 39 1007.0
20260505215033 81 99 4.0 9.0 0.00 0.02 0.02 40 1006.8
20260505214606 82 297 3.0 15.0 0.00 0.02 0.02 39 1007.0
20260505214031 82 359 4.0 15.0 0.00 0.02 0.02 39 1006.8
20260505213531 82 51 3.0 12.0 0.00 0.02 0.02 38 1006.8
20260505213046 82 114 5.0 12.0 0.00 0.02 0.02 39 1006.9
20260505212533 82 198 2.0 12.0 0.00 0.02 0.02 39 1006.9
20260505212033 82 143 4.0 12.0 0.00 0.02 0.02 41 1006.7
20260505211549 82 102 3.0 15.0 0.00 0.02 0.02 39 1006.7
20260505211033 82 220 6.0 15.0 0.00 0.02 0.02 39 1006.7
20260505210532 83 79 3.0 12.0 0.00 0.02 0.02 37 1006.6
20260505210047 83 259 4.0 13.0 0.00 0.02 0.02 38 1006.6
20260505205532 83 174 3.0 13.0 0.00 0.02 0.02 38 1006.6
20260505205033 83 221 2.0 11.0 0.00 0.02 0.02 40 1006.6
20260505204547 83 277 5.0 19.0 0.00 0.02 0.02 38 1006.4
20260505204032 83 115 5.0 19.0 0.00 0.02 0.02 36 1006.4
20260505203532 84 243 3.0 15.0 0.00 0.02 0.02 37 1006.3
20260505203049 84 106 3.0 15.0 0.00 0.02 0.02 38 1006.5
20260505202533 83 254 4.0 15.0 0.00 0.02 0.02 38 1006.5
20260505202033 83 200 3.0 13.0 0.00 0.02 0.02 39 1006.4
20260505201546 83 103 3.0 9.0 0.00 0.02 0.02 38 1006.6
20260505201032 83 114 4.0 15.0 0.00 0.02 0.02 37 1006.5
20260505200532 83 153 4.0 15.0 0.00 0.02 0.02 38 1006.8
20260505200056 83 264 4.0 15.0 0.00 0.02 0.02 38 1006.7
20260505195534 83 167 3.0 15.0 0.00 0.02 0.02 36 1006.6
20260505195036 83 290 4.0 15.0 0.00 0.02 0.02 37 1006.6
20260505194541 83 139 5.0 15.0 0.00 0.02 0.02 37 1006.7
20260505194032 83 141 4.0 13.0 0.00 0.02 0.02 38 1006.8
20260505193532 84 166 4.0 13.0 0.00 0.02 0.02 36 1006.7
20260505193050 84 170 4.0 9.0 0.00 0.02 0.02 37 1006.7
20260505192533 84 293 3.0 9.0 0.00 0.02 0.02 35 1006.7
20260505192032 84 145 2.0 14.0 0.00 0.02 0.02 36 1006.7
20260505191546 84 152 5.0 14.0 0.00 0.02 0.02 35 1006.7
20260505191032 84 149 3.0 14.0 0.00 0.02 0.02 37 1006.7
20260505190534 84 91 4.0 14.0 0.00 0.02 0.02 37 1006.8
20260505190047 84 248 4.0 13.0 0.00 0.02 0.02 36 1007.2
20260505185531 84 61 4.0 13.0 0.00 0.02 0.02 37 1007.0
20260505185035 84 172 4.0 19.0 0.00 0.02 0.02 39 1007.1
20260505184548 84 349 4.0 19.0 0.00 0.02 0.02 37 1007.1
20260505184033 84 58 5.0 17.0 0.00 0.02 0.02 37 1007.5
20260505183534 84 260 3.0 9.0 0.00 0.02 0.02 40 1007.3
20260505183057 84 61 1.0 12.0 0.00 0.02 0.02 39 1007.4
20260505182533 84 288 4.0 12.0 0.00 0.02 0.02 38 1007.4
20260505182035 84 186 3.0 12.0 0.00 0.02 0.02 40 1007.4
20260505181546 83 112 3.0 16.0 0.00 0.02 0.02 38 1007.5
20260505181031 83 254 4.0 16.0 0.00 0.02 0.02 37 1007.7
20260505180533 83 129 3.0 16.0 0.00 0.02 0.02 41 1007.7
20260505180051 82 321 4.0 11.0 0.00 0.02 0.02 40 1007.9
20260505175533 83 271 4.0 10.0 0.00 0.02 0.02 40 1007.9
20260505175032 83 120 2.0 10.0 0.00 0.02 0.02 41 1007.9
20260505174557 82 302 2.0 10.0 0.00 0.02 0.02 40 1007.9
20260505174033 83 84 3.0 10.0 0.00 0.02 0.02 43 1008.0
20260505173534 82 94 3.0 12.0 0.00 0.02 0.02 42 1008.0
20260505173041 82 349 4.0 12.0 0.00 0.02 0.02 45 1008.0
20260505172535 82 72 2.0 8.0 0.00 0.02 0.02 46 1008.1
20260505172033 82 281 2.0 10.0 0.00 0.02 0.02 42 1008.1
20260505171549 82 114 3.0 10.0 0.00 0.02 0.02 44 1008.0
20260505171033 82 227 3.0 11.0 0.00 0.02 0.02 46 1008.1
20260505170531 81 141 4.0 11.0 0.00 0.02 0.02 46 1008.2
20260505170046 81 232 3.0 7.0 0.00 0.02 0.02 46 1008.4
20260505165533 81 50 2.0 12.0 0.00 0.02 0.02 46 1008.4
20260505165032 81 253 4.0 12.0 0.00 0.02 0.02 43 1008.4
20260505164541 81 253 2.0 12.0 0.00 0.02 0.02 49 1008.6
20260505164032 80 295 1.0 12.0 0.00 0.02 0.02 46 1008.7
20260505163532 80 22 5.0 12.0 0.00 0.02 0.02 44 1008.7
20260505163041 80 278 2.0 12.0 0.00 0.02 0.02 45 1008.8
20260505162532 80 94 4.0 12.0 0.00 0.02 0.02 46 1008.8
20260505162033 80 19 2.0 7.0 0.00 0.02 0.02 47 1008.9
20260505161550 80 217 3.0 11.0 0.00 0.02 0.02 51 1008.8
20260505161032 79 70 3.0 11.0 0.00 0.02 0.02 47 1008.9
20260505160535 79 120 3.0 8.0 0.00 0.02 0.02 48 1009.0